CAPE
91 94 85 81 74 76 51 40 38 35 37 33 20 5 2 7 14 17 8 2 1 17 8 0 0 0 0 0 0 0 0 0 0 0 0 0 0 0 0 0 0 0 0 0 0 0 0 1 126 120 4 0 8 5
91 74 115 112 82 81 78 56 49 40 43 38 39 30 4 13 0 20 35 0 1 2 2 0 0 0 0 0 0 0 0 0 0 0 0 0 0 0 0 0 0 0 0 0 0 0 0 2 120 67 1 14 55 122
71 73 73 115 113 105 83 63 58 57 49 45 43 36 5 22 1 15 27 16 22 47 18 0 0 0 0 0 0 0 0 0 0 0 0 0 0 0 0 0 0 0 0 3 5 0 0 0 10 67 174 174 141 160
74 88 85 74 68 103 109 80 54 54 51 47 43 39 28 22 1 13 34 27 41 43 62 1 0 0 0 0 0 0 0 0 0 0 0 0 0 0 0 0 0 0 0 0 0 1 0 22 5 273 414 311 290 180
90 85 76 73 75 73 97 106 76 58 74 66 59 39 35 17 0 0 49 35 14 26 43 3 0 0 0 0 0 0 0 0 0 0 0 0 0 0 0 0 0 0 0 0 0 0 0 6 19 291 258 305 318 221
72 72 71 81 87 74 71 80 75 61 74 70 45 35 31 2 1 30 38 18 19 13 50 11 0 0 0 0 0 0 0 0 0 0 0 0 0 0 0 0 0 0 0 0 0 80 0 0 233 243 279 240 366 339
70 69 74 72 83 82 88 95 70 64 63 58 34 25 8 5 1 36 10 0 1 25 55 7 0 0 0 0 0 0 0 0 0 0 0 0 0 0 0 0 0 0 35 19 0 0 12 0 11 63 158 228 144 14
67 73 69 69 79 80 113 106 93 76 70 49 30 12 0 0 6 27 1 3 0 1 27 13 0 0 0 0 0 0 0 0 0 0 0 0 0 0 0 0 0 0 24 12 0 0 0 0 45 111 41 73 235 59
54 74 58 73 71 90 103 110 97 73 49 38 22 0 5 23 28 10 39 24 0 3 27 0 0 0 0 0 0 0 0 0 0 0 0 0 0 0 0 0 0 0 5 78 27 31 45 49 36 4 0 2 0 0
51 44 52 59 77 78 98 93 74 60 27 14 3 40 46 47 37 56 7 11 0 0 0 0 0 0 0 0 0 0 0 0 0 0 0 0 0 0 0 0 0 0 0 6 47 4 1 0 1 3 0 0 0 3
47 38 53 64 66 88 70 68 57 33 17 27 44 44 2 65 31 2 50 19 1 0 0 0 0 0 0 0 0 0 0 0 21 0 0 0 0 0 0 0 1 0 0 125 67 55 3 0 0 0 0 2 13 18
54 51 57 62 79 76 58 50 39 5 26 38 20 13 27 41 43 4 16 3 0 0 0 0 0 0 0 0 9 0 5 0 5 0 0 0 0 0 0 106 102 20 56 449 217 55 61 46 36 9 0 0 2 27
44 46 50 64 61 60 52 43 12 0 12 52 69 36 77 38 144 12 2 14 0 0 0 0 0 0 0 2 19 2 44 3 0 0 0 0 0 0 30 35 49 27 23 55 107 76 27 11 26 52 0 0 0 0
54 50 36 36 38 45 40 29 5 2 6 51 17 33 12 0 0 0 0 0 0 0 0 0 0 0 1 0 0 2 0 0 4 0 0 0 0 6 0 0 0 0 0 0 0 0 0 0 0 0 0 0 0 6
41 35 35 39 52 43 30 6 19 0 10 8 29 6 0 0 0 0 0 0 0 0 0 0 0 0 0 0 0 4 15 17 0 34 18 14 11 0 0 0 0 0 0 0 0 0 0 0 0 0 0 0 0 18
41 42 10 44 26 12 5 1 1 1 26 18 9 17 0 0 0 0 0 0 0 0 0 0 1 0 0 1 45 6 16 39 58 19 2 0 0 0 0 0 0 0 0 0 0 0 0 0 0 0 0 0 0 0
30 0 29 6 12 4 2 0 0 22 11 13 5 0 0 0 0 0 0 0 0 0 0 7 27 33 1 14 2 0 45 25 2 0 0 0 0 0 0 0 0 0 0 0 0 0 0 0 0 0 0 0 0 0
1 0 9 0 1 0 0 7 22 37 15 0 0 0 0 0 0 0 0 0 0 0 5 4 0 0 0 0 0 0 0 0 0 0 0 0 0 0 0 0 0 0 0 0 0 0 0 6 0 0 0 0 0 0
1 2 1 0 0 0 8 0 1 14 4 0 0 0 0 0 0 0 0 0 0 0 0 1 0 0 0 0 0 0 0 0 0 0 0 0 0 0 0 0 0 0 0 0 0 0 5 19 6 3 1 7 14 11
11 9 4 0 0 0 0 0 0 0 0 0 0 0 0 0 0 0 0 0 0 0 0 0 0 0 0 0 0 0 0 0 0 0 0 0 0 0 0 0 0 0 0 0 1 0 2 3 0 0 0 9 33 44
0 0 0 0 0 0 0 0 0 0 0 0 0 0 0 0 0 0 0 0 0 0 0 1 0 0 0 0 0 0 0 0 0 0 0 0 0 0 0 0 0 0 0 0 0 0 0 0 0 0 0 0 30 0
0 0 0 0 0 0 0 0 0 0 0 0 0 0 0 0 0 0 0 0 1 1 1 1 0 0 2 0 2 0 0 0 0 0 1 0 2 2 0 0 0 0 0 0 0 0 0 0 0 0 6 4 0 0
0 0 0 0 0 0 0 0 0 0 0 0 0 0 0 0 0 0 11 5 1 0 0 0 1 11 17 8 0 0 0 0 7 0 0 9 3 0 0 0 0 0 0 0 0 0 0 0 0 0 0 0 0 0
0 0 0 0 0 0 0 0 0 0 0 0 0 0 0 0 0 4 34 5 6 0 0 1 3 0 0 0 0 0 0 0 0 0 0 0 0 0 0 0 0 0 0 0 0 0 0 0 0 0 0 0 0 0
0 0 0 0 0 0 0 0 0 0 0 0 0 0 0 0 0 1 10 7 1 0 0 0 3 0 0 0 0 0 0 0 0 0 0 0 0 0 0 0 0 0 0 0 0 0 0 0 0 0 0 0 0 0
0 0 0 0 0 0 0 0 0 0 0 0 0 0 0 0 0 4 2 7 0 0 0 0 5 0 0 0 0 0 0 0 0 0 0 0 0 0 0 0 0 0 0 0 0 0 0 0 0 0 0 0 0 0
0 0 0 0 0 0 0 0 0 0 0 0 0 0 0 2 3 3 0 0 0 0 0 0 0 0 0 0 0 0 0 0 0 0 0 0 0 0 0 0 0 0 0 0 0 0 0 0 0 0 0 0 0 0
0 0 0 0 0 0 0 0 0 0 0 0 0 0 1 0 1 0 0 0 0 0 0 0 0 0 0 0 0 0 0 0 0 0 0 0 0 0 0 0 0 0 0 0 0 0 0 0 0 0 0 0 0 0
0 0 0 0 0 0 0 0 0 0 0 0 0 0 0 0 0 0 0 0 0 0 0 0 0 0 0 0 0 0 0 0 0 0 0 0 0 0 0 0 0 0 0 0 0 0 0 0 0 0 0 0 0 0
0 0 0 0 0 0 0 0 0 0 0 0 0 0 0 0 0 0 0 0 0 0 0 0 0 0 0 0 0 0 0 0 0 0 0 0 0 0 0 0 0 0 0 0 0 0 0 0 0 0 0 0 0 0
0 0 0 0 0 0 0 0 0 0 0 0 0 0 0 0 0 0 0 0 0 0 0 0 0 0 0 0 0 0 0 0 0 0 0 0 0 0 0 0 0 0 0 0 0 0 0 0 0 0 0 0 0 0
0 0 0 0 13 3 0 0 0 0 0 0 0 0 0 0 0 0 0 0 0 0 0 0 0 0 0 0 0 0 0 0 0 0 0 0 0 0 0 0 0 0 0 0 0 0 0 0 0 0 0 0 0 0
0 0 0 0 0 3 0 1 1 1 0 1 3 0 0 0 0 2 0 0 0 0 0 0 0 0 0 0 0 0 0 0 0 0 0 0 0 0 0 0 0 0 0 0 0 0 0 0 0 0 0 0 0 0
CIN
0 0 -4 -2 0 0 -2 -3 -9 -7 -5 -1 -1 0 0 -1 -1 -1 -7 -12 0 -3 -28 0 0 0 0 0 0 0 0 0 0 0 0 0 0 0 0 0 0 0 0 0 0 0 -11 -114 -125 -42 -34 0 -173 -118
0 0 0 -1 -7 -6 -1 -2 -6 -12 -7 -3 -2 -3 0 -2 -2 0 -1 0 -8 0 -32 0 0 0 0 0 0 0 0 0 0 0 0 0 0 0 0 0 0 0 -2 0 0 0 0 -15 -90 -142 -273 -216 -162 -116
0 -1 -1 0 0 0 -1 -5 -2 -5 -7 -7 -5 -3 0 -4 -3 -2 -1 -32 -2 0 -7 0 0 0 0 0 0 0 0 0 0 0 0 0 0 0 0 0 0 0 0 -79 -89 0 0 0 -229 -268 -210 -171 -188 -183
0 0 0 -1 -4 0 0 -1 -9 -5 -8 -7 -8 -6 -3 -8 -3 -2 -1 -15 -3 -5 0 -3 0 0 0 0 0 0 0 0 0 0 0 0 0 0 0 0 0 0 0 0 0 -13 0 -38 -199 -169 -156 -185 -176 -164
0 0 -1 -1 -2 0 0 0 -8 -6 -4 -6 -10 -9 -8 -10 0 -1 -1 -9 -23 -3 -1 -8 0 0 0 0 0 0 0 0 0 0 0 0 0 0 0 0 0 0 0 0 0 0 0 -18 -81 -202 -174 -172 -163 -158
-2 -2 -4 -1 -1 -1 0 -2 -5 -5 -3 -10 -10 -10 -17 -10 -34 -1 -1 -44 -50 -5 0 -10 0 0 0 0 0 0 0 0 0 0 0 0 0 0 0 0 0 0 0 0 0 -197 0 -5 -211 -230 -201 -194 -151 -125
-2 -3 -4 -4 0 0 0 0 -5 -4 -7 -10 -16 -20 -25 -30 0 -1 -18 0 -1 -8 0 -4 0 0 0 0 0 0 0 0 0 0 0 0 0 0 0 0 0 0 -134 -206 0 0 -137 -22 -86 -233 -212 -174 -179 -110
-7 -5 -5 -2 0 -1 -1 0 0 -3 -5 -14 -21 -25 0 0 -23 -6 -49 -41 0 -8 -19 -3 0 0 0 0 0 0 0 0 0 0 0 0 0 0 0 0 0 -28 -183 -185 0 0 0 0 -282 -232 -257 -201 -120 -117
-12 -7 -7 -2 -3 -3 -1 0 0 -3 -12 -13 -21 -1 -1 -3 -6 -8 -24 -36 0 -3 -2 0 0 0 0 0 0 0 0 0 0 0 0 0 0 0 0 0 0 0 -87 -128 -218 -245 -226 -204 -212 -58 -42 -43 0 0
-15 -12 -12 -9 -8 -5 -1 -1 -2 -4 -10 -14 0 -1 -1 -2 -30 -30 -64 -22 -1 -3 0 0 0 0 0 0 0 0 0 0 0 0 0 0 0 0 0 0 0 0 0 -234 -138 -111 -60 -2 -3 -137 0 0 0 -158
-8 -11 -10 -10 -8 -3 -6 -4 -3 -8 -6 -1 -7 -7 -15 -25 -48 -33 -1 -4 -7 0 0 0 0 0 0 0 0 0 0 -26 -63 0 0 0 0 0 0 0 -57 0 -30 -117 -97 -140 -179 0 0 0 0 -42 -82 -79
-5 -10 -12 -9 -6 -5 -5 -7 -8 -5 -2 -6 -5 -32 -24 -18 -6 -7 -1 -2 0 0 0 0 0 0 0 0 -96 -69 -133 0 -65 0 0 0 0 0 0 -88 -91 -122 -108 -33 -69 -115 -117 -138 -143 -98 0 0 -17 -78
-14 -10 -9 -7 -7 -7 -5 -6 -6 0 -6 -3 -9 0 -3 -2 0 -2 0 -2 0 0 0 0 0 0 0 -43 -47 -16 -60 -75 0 0 0 0 0 0 -87 -86 -50 -90 -100 -65 -56 -71 -87 -106 -116 -102 0 0 0 0
-14 -12 -11 -12 -8 -4 -6 -6 -9 0 -1 0 0 -2 -1 0 0 0 0 0 0 0 0 0 0 0 -58 0 -11 -10 0 -6 -70 0 0 0 0 -80 0 0 0 0 0 0 0 0 0 0 0 0 0 0 0 -106
-11 -12 -9 -6 -4 -3 -2 -2 -3 -3 -5 0 -1 -2 0 0 0 0 0 0 0 0 0 0 0 0 0 0 0 -166 -98 -32 0 -6 -20 -29 -71 0 0 0 0 0 0 0 0 0 0 0 0 0 0 0 0 -64
-8 -5 -11 -3 -3 -3 -8 -4 -13 -18 -2 -1 -1 -5 0 0 0 0 0 0 0 0 0 0 -51 0 0 -56 -49 -115 -53 -3 -37 -38 -16 0 0 0 0 0 0 0 0 0 0 0 0 0 0 0 0 0 0 0
-16 0 -2 -4 -1 0 -6 0 0 -2 0 0 0 0 0 0 0 0 0 0 0 0 -13 -129 -62 -60 -8 -100 -20 0 -10 -16 -4 0 0 0 0 0 0 0 0 0 0 0 0 0 0 0 0 0 0 0 0 0
-10 0 -2 0 -1 0 0 -9 -1 0 0 0 0 0 0 0 0 0 0 0 0 0 -58 -109 0 0 0 0 0 0 0 0 0 0 0 0 0 0 0 0 0 0 0 0 0 0 -39 -69 -17 0 0 0 0 0
0 0 -1 0 0 0 -11 0 0 0 -2 0 0 0 0 0 0 0 0 0 0 0 -16 -36 0 0 0 0 0 0 0 0 0 0 0 0 0 0 0 0 0 0 0 -40 -42 -30 -49 -36 -72 -92 0 -44 -14 -10
-1 0 0 0 -5 0 0 0 0 0 0 0 0 0 0 0 0 0 0 0 0 0 0 0 0 0 0 0 0 0 0 0 0 0 0 0 0 0 0 0 0 0 0 0 -29 -30 -176 -24 -25 0 0 -28 -11 -8
0 0 0 0 0 0 0 0 0 0 0 0 0 0 0 0 0 -20 0 0 0 0 0 0 0 0 0 0 0 0 0 0 0 0 -1 0 0 0 0 0 0 0 0 0 0 0 0 0 0 0 0 -1 -14 -1
0 0 0 0 0 0 0 0 0 0 0 0 0 0 0 0 0 0 0 -17 -25 0 0 0 0 0 -32 -41 -163 -2 0 0 0 0 -29 -29 -24 -82 0 0 0 0 0 0 0 0 0 0 0 0 -83 0 0 0
0 0 0 0 0 0 0 0 0 0 0 0 0 0 0 0 0 0 -22 -16 -33 0 0 0 -81 -110 -94 -106 -15 0 0 0 -102 -54 -24 -119 -78 0 0 0 0 0 0 0 0 0 0 0 0 0 0 0 0 0
0 0 0 0 0 0 0 0 0 0 0 0 0 0 0 0 0 -34 -13 -9 -54 0 -24 -104 -145 -25 0 0 0 0 0 0 -40 0 0 0 0 0 0 0 0 0 0 0 0 0 0 0 0 0 0 0 0 0
0 0 0 0 0 0 0 0 0 0 0 0 0 0 0 0 -6 -3 -5 -35 -73 -6 0 0 -162 0 0 0 0 0 0 0 0 0 0 0 0 0 0 0 0 0 0 0 0 0 0 0 0 0 0 0 0 0
0 0 0 0 0 0 0 0 0 0 0 0 0 0 0 0 0 -1 -14 -38 0 0 0 0 -206 0 0 0 0 0 0 0 0 0 0 0 0 0 0 0 0 0 0 0 0 0 0 0 0 0 0 0 0 0
0 0 0 0 0 0 0 0 0 0 0 0 -2 0 0 -1 -1 -16 0 0 0 0 0 0 0 0 0 0 0 0 0 0 0 0 0 0 0 0 0 0 0 0 0 0 0 0 0 0 0 0 0 0 0 0
0 0 0 0 0 0 0 0 0 0 0 0 0 0 -10 -4 -4 0 0 0 0 0 0 0 0 0 0 0 0 0 0 0 0 0 0 0 0 0 0 0 0 0 0 0 0 0 0 0 0 0 0 0 0 0
0 0 0 0 0 0 0 0 0 0 0 0 0 0 0 0 0 0 0 0 0 0 0 0 0 0 0 0 0 0 0 0 0 0 0 0 0 0 0 0 0 0 0 0 0 0 0 0 0 0 0 0 0 0
0 0 0 0 0 0 0 0 0 0 0 0 0 0 0 0 0 0 0 0 0 0 0 0 0 0 0 0 0 0 0 0 0 0 0 0 0 0 0 0 0 0 0 0 0 0 0 0 0 0 0 0 0 0
0 0 0 0 0 0 0 0 0 0 0 0 0 0 0 0 0 0 0 0 0 0 0 0 0 0 0 0 0 0 0 0 0 0 0 0 0 0 0 0 0 0 0 0 0 0 0 0 0 0 0 0 0 0
0 0 0 -2 -19 -69 -1 0 0 0 0 0 0 0 0 0 0 0 0 0 0 0 0 0 0 0 0 0 0 0 0 0 0 0 0 0 0 0 0 0 0 0 0 0 0 0 0 0 0 0 0 0 0 0
0 0 0 -6 -11 -14 0 -30 -25 -30 -44 -18 -35 -3 0 0 0 -27 0 0 0 0 0 0 0 0 0 0 0 0 0 0 0 0 0 0 0 0 0 0 0 0 0 0 0 0 0 0 0 0 0 0 0 0
Wind_Speed
20 19 15 14 14 14 13 14 12 12 11 9 10 11 9 9 10 3 3 4 3 2 4 5 3 3 1 2 4 4 5 3 3 3 2 3 3 4 1 4 4 5 3 3 2 1 5 5 2 4 8 4 3 4
20 19 17 15 14 14 14 13 12 12 11 9 10 9 9 9 9 5 3 2 3 3 5 3 6 10 5 6 3 2 4 2 4 3 1 1 1 1 2 3 1 2 6 4 8 7 7 5 7 6 3 4 6 4
19 19 18 16 15 15 13 14 11 12 12 9 9 9 10 6 9 5 2 1 2 3 5 6 11 5 8 13 11 4 3 5 4 4 4 2 3 4 3 6 2 3 4 3 2 7 7 8 6 6 4 7 5 5
17 17 17 16 15 14 14 14 14 12 12 10 9 9 8 6 8 5 3 3 1 3 4 7 2 7 3 7 12 14 9 1 1 1 2 3 2 3 3 3 3 5 4 4 6 9 7 7 5 3 4 4 4 6
16 15 15 15 14 14 14 13 14 12 11 10 9 9 8 6 8 6 5 3 3 2 3 5 7 14 10 11 13 13 13 6 1 2 2 3 2 2 1 1 4 5 7 5 7 9 5 8 3 1 4 5 6 5
15 14 14 13 12 13 13 13 10 11 10 10 9 9 8 5 5 1 2 5 7 4 3 4 5 5 3 4 8 11 10 4 4 5 5 3 4 5 3 5 7 6 4 6 6 3 4 8 6 2 3 5 7 5
15 14 13 12 12 12 12 11 10 8 8 8 9 7 7 6 1 3 2 2 5 5 2 4 6 5 3 3 3 3 4 4 4 3 3 4 3 5 2 7 7 7 7 2 2 3 5 3 4 3 5 6 3 2
13 13 13 12 12 11 11 10 9 9 9 9 6 6 8 8 7 3 4 6 4 2 3 3 6 6 1 1 3 2 4 2 2 3 2 3 2 2 4 10 4 5 6 6 4 4 7 7 5 5 3 3 5 6
11 12 13 12 11 10 11 10 9 10 8 6 5 5 3 3 2 4 4 7 1 2 2 3 3 5 5 1 1 1 2 2 0 3 4 5 2 5 6 4 4 3 4 5 6 7 6 6 7 6 4 6 7 6
11 11 12 11 10 11 11 9 8 8 6 3 0 4 3 5 6 9 1 2 1 3 3 3 1 4 1 3 3 3 2 3 3 5 4 3 4 4 5 6 7 7 6 5 4 6 5 5 4 6 5 6 4 4
10 11 11 10 10 10 10 9 8 6 3 3 2 3 1 8 3 2 2 3 3 3 4 5 7 4 2 1 3 1 3 1 2 4 4 1 1 3 6 6 3 1 5 7 7 4 2 3 5 6 5 5 4 4
9 9 10 10 10 10 9 8 8 5 3 2 1 3 3 2 1 3 4 3 4 6 4 5 5 5 3 2 1 1 1 0 4 3 3 1 3 5 6 3 3 3 5 6 3 7 7 8 7 5 3 3 4 4
10 9 10 9 9 10 9 8 11 6 6 2 3 4 3 3 6 5 6 3 3 4 4 3 3 4 0 1 2 1 3 3 2 3 2 2 2 4 5 3 3 5 5 6 6 6 7 7 8 5 5 3 4 5
9 9 9 8 9 7 8 8 6 4 5 2 1 3 5 4 5 5 5 4 5 4 3 3 3 3 2 2 4 5 5 2 2 3 2 2 3 4 5 4 4 6 7 7 7 7 8 8 7 6 4 3 4 5
10 10 9 7 9 9 8 5 6 0 2 3 2 3 5 4 3 4 4 2 3 2 2 2 1 3 4 4 4 2 3 4 4 2 2 1 3 3 3 3 5 6 5 6 6 7 10 9 8 7 7 5 3 4
12 10 2 10 11 10 11 6 3 1 2 3 3 3 1 1 4 1 3 4 2 2 2 1 3 5 4 2 3 5 3 4 2 2 2 3 3 3 4 5 5 5 6 6 6 7 8 7 7 6 5 6 5 3
6 2 10 10 10 11 5 3 2 2 2 4 3 3 3 3 4 3 2 2 0 2 2 3 4 3 2 5 4 4 3 1 2 3 2 2 4 4 5 6 6 6 6 7 7 8 6 5 5 8 10 9 8 7
3 6 13 13 8 3 1 3 0 4 7 4 3 2 2 2 2 2 2 2 2 2 2 3 3 6 4 3 2 2 2 3 2 2 2 2 4 5 5 5 5 5 4 5 4 4 5 7 8 5 6 7 6 8
7 8 15 11 1 3 2 3 3 2 5 2 4 1 1 3 2 2 2 2 1 2 4 4 5 3 2 2 2 3 2 2 1 1 1 3 5 6 5 5 5 5 5 4 4 4 3 4 4 4 5 6 5 5
15 11 4 7 3 1 1 2 2 1 4 2 1 4 3 3 5 5 7 5 4 5 6 5 3 1 2 2 3 3 1 1 2 2 3 4 4 4 5 4 4 5 4 5 4 5 5 5 3 3 3 4 6 8
6 4 5 1 1 1 1 2 3 1 3 4 3 3 2 3 8 6 5 5 6 4 3 3 3 3 3 2 1 2 0 2 1 1 2 1 2 3 3 4 4 3 4 5 6 7 7 5 5 4 3 4 5 4
1 4 2 3 2 2 1 2 2 3 3 2 4 3 5 4 5 5 3 6 4 3 2 2 3 3 3 4 4 4 3 4 4 4 5 3 3 3 3 3 4 4 4 4 4 4 5 5 5 4 7 8 7 8
2 4 2 3 3 3 5 1 3 4 4 3 4 5 5 5 4 3 4 3 3 3 2 2 3 4 4 4 6 7 6 5 4 4 3 2 3 3 3 4 4 4 5 5 4 4 4 7 8 7 6 7 7 8
3 2 1 0 1 4 3 5 3 4 5 5 5 5 5 4 6 5 4 3 2 3 4 7 4 3 4 6 5 4 4 2 2 3 3 2 3 3 2 2 3 3 2 3 3 4 6 6 6 6 6 7 7 6
5 7 5 6 3 5 6 5 6 6 5 5 4 5 4 4 4 3 3 4 4 5 5 5 4 4 3 1 2 4 5 2 2 3 4 3 1 2 3 3 3 3 3 3 4 4 5 5 5 6 7 7 8 9
6 4 4 4 4 4 4 4 5 4 3 4 4 1 3 3 4 3 3 3 3 3 3 3 2 3 5 3 2 4 5 4 2 4 3 3 2 3 2 3 3 4 4 2 2 3 4 5 6 7 7 8 9 7
5 4 3 1 0 1 4 3 3 4 3 3 1 2 2 4 3 3 3 1 1 3 1 2 3 5 3 2 2 4 3 4 4 4 1 3 4 4 2 3 3 2 3 3 4 5 5 5 5 6 6 6 6 5
1 2 3 5 3 2 3 3 3 2 2 1 2 2 2 2 2 2 1 1 1 3 4 4 4 3 4 4 3 3 4 3 2 2 3 4 5 6 6 3 3 5 3 3 3 3 4 4 3 3 4 4 4 4
2 2 2 5 3 4 3 2 1 2 3 3 4 2 1 1 2 2 3 1 3 4 4 4 3 3 4 3 4 4 4 4 5 7 6 3 4 4 6 4 3 2 2 2 6 4 3 2 2 2 3 3 4 4
2 0 2 2 3 4 3 1 1 1 0 2 3 3 4 4 4 3 2 3 2 2 1 1 2 1 2 2 3 4 4 4 3 3 3 2 2 4 4 4 3 3 2 1 1 0 3 2 3 3 4 4 4 4
1 1 3 4 4 2 1 1 3 4 4 4 4 6 2 1 3 3 3 1 2 3 3 2 2 0 2 2 1 1 2 2 2 3 2 1 1 2 3 4 4 4 3 1 2 1 2 2 3 4 5 5 5 4
1 3 4 5 3 2 2 3 2 2 1 2 2 1 2 3 2 3 2 1 3 3 2 0 1 2 0 1 2 1 2 2 1 0 1 1 2 3 3 3 3 4 5 4 2 2 3 3 3 4 5 6 5 3
3 3 4 3 4 3 2 3 2 2 1 2 2 3 2 4 2 3 1 1 3 4 4 3 2 1 3 3 2 1 1 1 3 5 7 7 7 5 3 1 2 3 5 4 4 4 4 4 3 4 5 5 6 3
Wind_Direction
251 253 254 243 247 246 254 269 278 279 265 267 281 285 290 292 316 307 262 195 208 271 281 214 231 202 85 141 153 279 356 327 1 49 147 227 189 231 180 219 195 190 171 213 117 199 295 163 109 187 220 257 253 249
249 242 241 250 247 245 248 256 269 271 271 272 269 271 284 279 303 288 266 225 160 223 276 275 251 247 213 189 156 232 226 220 230 95 204 128 287 341 167 251 48 264 184 196 172 221 229 218 239 246 161 235 264 252
250 240 236 234 239 248 249 254 269 260 268 260 269 271 279 259 291 278 277 187 189 254 246 250 261 236 222 217 188 166 269 220 249 183 168 166 246 132 210 242 224 250 165 201 79 273 242 257 253 245 221 232 287 278
245 242 236 235 237 238 238 251 258 257 264 266 271 268 244 255 279 266 248 200 205 267 265 273 299 271 222 191 203 215 230 69 66 99 122 139 195 168 231 241 182 216 145 223 252 281 284 274 236 318 329 318 289 287
237 234 230 227 231 233 237 243 255 258 260 260 271 273 234 257 274 287 219 215 210 216 298 285 300 271 253 202 194 201 212 197 123 343 98 223 222 141 222 43 241 191 208 179 234 244 200 261 299 244 268 283 273 290
234 227 222 220 224 230 230 247 256 255 255 261 271 251 231 273 307 233 249 215 203 173 263 298 281 278 282 173 188 201 193 134 165 171 212 227 237 145 220 243 262 220 208 197 251 355 232 267 269 236 252 253 261 269
235 226 217 212 220 222 232 238 254 253 272 269 268 227 254 276 277 225 203 273 174 139 241 285 293 271 265 161 116 110 127 178 152 193 205 184 233 147 162 250 252 266 269 281 243 337 286 250 292 289 248 274 269 302
227 223 205 210 216 219 220 228 237 255 260 271 241 246 263 278 250 265 249 235 154 206 231 270 273 330 337 228 127 165 136 167 204 190 95 162 56 100 253 246 280 251 277 289 261 225 235 272 283 263 264 297 261 254
217 205 200 207 212 209 219 220 229 246 268 249 233 261 276 240 174 221 141 148 157 220 227 172 228 268 346 327 160 77 146 115 310 193 224 119 145 221 241 277 290 269 259 262 305 287 273 238 255 252 256 261 253 270
206 209 198 205 202 206 209 212 225 246 236 202 290 209 191 196 164 114 92 166 170 207 258 235 157 268 24 7 337 81 35 181 180 237 113 148 235 253 252 263 257 272 280 287 275 358 332 315 307 293 261 261 275 276
213 214 198 197 199 205 204 211 217 185 131 219 189 206 281 148 117 154 188 213 172 254 212 228 191 200 269 170 243 202 180 151 196 237 152 184 287 275 310 304 290 323 294 299 293 52 340 238 285 301 326 329 302 278
190 186 189 193 199 203 199 199 180 154 210 226 218 174 126 172 146 147 218 176 197 227 206 185 204 188 257 167 140 6 174 171 236 135 113 95 253 264 296 314 310 266 289 286 321 347 332 332 324 311 310 311 307 321
177 174 178 190 197 192 187 191 179 207 299 233 197 194 153 166 195 207 188 199 214 209 199 176 192 165 99 159 59 7 349 233 78 26 91 221 276 297 289 315 4 359 360 11 355 341 325 316 321 320 289 281 284 295
160 162 177 173 181 172 183 166 200 243 247 222 177 190 213 188 232 198 197 198 219 206 174 150 124 141 144 111 140 191 210 156 98 65 49 272 282 302 321 344 12 344 342 334 329 327 319 325 319 323 324 294 274 284
153 148 151 161 165 156 148 167 166 309 353 264 248 211 213 241 257 230 232 273 237 158 134 93 360 105 180 242 208 120 137 78 52 45 91 64 300 311 313 330 324 316 323 319 333 323 316 325 322 317 340 352 343 324
131 114 123 144 148 149 134 111 63 315 274 286 254 274 299 84 306 301 218 243 201 129 146 148 124 152 199 255 73 13 36 52 63 342 332 316 319 301 306 340 356 1 9 344 325 320 327 340 341 334 342 2 6 12
125 106 150 144 135 132 122 79 66 52 33 271 247 245 230 234 240 252 224 276 139 114 66 27 55 12 317 50 45 3 40 73 326 297 286 276 290 347 28 27 14 9 5 357 352 0 359 347 353 22 7 347 344 347
66 135 134 135 124 124 37 51 232 215 231 242 272 263 236 235 235 273 299 337 92 88 80 81 115 42 64 98 304 241 330 18 12 3 18 13 35 42 46 36 13 14 13 16 359 352 347 2 11 7 344 343 346 359
131 142 148 165 235 106 166 218 189 193 227 265 279 331 344 286 257 203 181 269 182 132 90 31 56 49 86 122 181 257 246 214 204 343 342 30 49 50 41 23 12 8 4 354 357 1 331 339 358 352 351 360 7 347
107 116 172 268 254 270 264 301 135 85 310 309 3 17 62 9 324 10 32 18 25 55 41 40 25 314 159 222 190 210 231 125 130 75 29 16 24 46 32 26 7 344 343 348 2 4 358 355 0 347 1 9 11 351
57 321 327 343 294 342 295 341 330 282 327 20 334 51 42 8 40 30 25 358 49 40 44 16 334 301 299 306 130 125 23 145 129 121 144 81 360 78 39 9 358 7 22 12 8 353 8 353 324 325 347 19 44 77
287 298 23 360 341 333 286 243 185 278 58 289 27 28 45 23 1 13 328 39 42 14 10 334 316 326 24 31 27 53 85 83 70 75 71 92 51 21 18 357 22 16 15 4 360 351 337 338 341 13 60 67 53 44
62 40 32 347 332 34 268 60 35 9 69 18 20 36 19 358 340 313 64 34 22 338 309 304 324 0 61 47 61 45 41 64 65 67 58 61 58 59 56 31 29 32 6 347 357 1 6 344 22 43 42 51 57 48
72 55 333 241 211 309 348 18 33 48 40 35 41 43 5 352 332 42 52 2 299 319 14 18 19 49 30 36 32 11 354 347 64 57 23 105 91 30 28 19 24 22 348 315 0 17 27 30 22 42 46 56 51 52
53 339 45 345 2 31 24 21 15 49 57 28 57 21 344 353 58 42 20 305 1 10 15 3 28 49 82 42 8 352 343 14 49 49 358 355 68 46 30 30 27 10 340 48 27 42 37 32 38 40 37 42 52 52
63 358 55 355 357 53 4 46 40 50 63 57 48 38 360 39 45 33 313 313 324 315 351 3 40 65 35 8 349 345 319 331 68 89 11 11 21 110 81 42 7 352 9 48 49 40 39 38 42 45 42 35 33 50
55 352 333 348 203 74 66 52 54 72 76 87 108 76 68 62 80 259 291 316 334 326 333 124 104 97 98 19 355 352 6 42 72 101 34 21 35 29 64 102 76 306 336 46 49 48 47 46 42 34 33 35 34 37
153 8 57 323 37 23 99 70 55 73 141 177 93 62 96 133 185 261 258 353 97 95 72 60 54 78 78 50 7 356 16 352 9 7 8 36 38 33 14 19 34 42 54 48 66 63 60 63 60 28 20 17 4 7
31 334 23 26 30 42 43 77 77 254 172 140 116 111 99 322 305 328 346 45 115 102 99 101 45 47 59 44 32 15 7 14 69 79 66 30 3 354 356 349 5 17 12 31 40 38 27 52 40 20 5 347 326 321
345 35 83 44 58 44 317 140 88 250 42 86 109 84 33 13 343 329 38 73 92 114 167 165 145 75 96 58 15 14 7 13 48 99 98 64 325 309 324 343 358 344 305 187 130 25 24 26 8 7 2 2 7 8
135 3 65 50 72 21 117 119 41 45 41 45 12 88 112 283 336 351 42 54 117 86 79 62 36 180 172 186 137 80 33 351 38 84 106 142 271 328 349 352 341 334 330 224 160 116 58 7 351 346 350 354 359 360
33 49 74 54 55 37 76 70 64 72 48 48 30 92 70 44 26 305 295 114 78 72 23 35 32 332 80 221 198 179 143 137 135 38 15 317 324 328 330 344 355 6 17 40 48 9 350 353 346 352 351 342 339 335
37 51 53 56 27 41 341 102 103 127 152 189 185 160 151 158 185 242 230 182 164 173 186 208 249 278 180 178 183 174 135 266 291 302 299 288 268 264 280 309 9 27 26 15 0 345 340 326 306 318 328 329 332 329